sat.trackr.live / text

‹ back to catalog

STARLINK-30296

NORAD 57671 · 2023-124J

PAYLOAD ACTIVE UNKNOWN

§ Identity

Operator
Country
US
Launch date
2023-08-22
Launch site
AFWTR
Launch vehicle
Mass (kg)
RCS (m²)

Purposes: comms

External: N2YO · Heavens-Above · Gunter

§ Orbital elements

Epoch: 2026-05-24T21:48:40.802976Z

Period
94.11 min
Inclination
53.1606°
Eccentricity
0.0001162
Mean motion
15.30188541 rev/d
Perigee alt
474.5 km
Apogee alt
476.0 km
Semi-major
6,853.4 km
B*
-3.3026e-6
RAAN
212.9828°
Arg perigee
95.9131°
Mean anomaly
264.2002°
Rev number
15,523

§ Raw data

STARLINK-302961 57671U 23124J   26144.90880559 -.00000457  00000+0 -33026-5 0  99952 57671  53.1606 212.9828 0001162  95.9131 264.2002 15.30188541155237

JSON: /api/v1/satellites/57671 · /tle

For live sub-satellite position, see the globe view (requires WebGL).

§ Visibility from observer

Set your observer location to see the next 7 days of passes ≥ 10°. The values pass through the URL so the page stays shareable.

No JS? Fill the form by hand. The geolocation button needs JavaScript.